Weather History for KSPA - February, 2013

Change the Weather History Date:

Monday, February 11, 2013

  Actual Average (KGSP) Record (KGSP)
Temperature  
Mean Temperature 52 °F 45 °F  
Max Temperature 59 °F 56 °F 75 °F (1965)
Min Temperature 46 °F 34 °F 11 °F (1899)
Degree Days  
Heating Degree Days 12 20  
Month to date heating degree days 229  
Since 1 July heating degree days 2139  
Cooling Degree Days 0 0  
Month to date cooling degree days 0  
Year to date cooling degree days 0  
Growing Degree Days 2 (Base 50)    
Moisture  
Dew Point 52 °F    
Average Humidity 99    
Maximum Humidity 100    
Minimum Humidity 94    
Precipitation  
Precipitation 0.05 in 0.14 in 1.70 in (1908)
Month to date precipitation 1.46  
Year to date precipitation 5.28  
Snow  
Snow 0.00 in 0.00 in 4.00 in (1899)
Month to date snowfall 0.4  
Since 1 July snowfall 3.2  
Snow Depth -    
Sea Level Pressure  
Sea Level Pressure 30.05 in    
Wind  
Wind Speed 4 mph (WSW)    
Max Wind Speed 14 mph    
Max Gust Speed 20 mph    
Visibility 5 miles    
Events Fog , Rain    
T = Trace of Precipitation, MM = Missing Value Source: NWS Daily Summary

Daily Weather History Graph

Daily Weather History Graph

Search for Another Location

Airport or City:

Trip Planner

Search our weather history database for the weather conditions in past years. The results will help you decide how hot, cold, wet, or windy it might be!

Date:

Astronomy

Feb. 11, 2013 Rise Set
Actual Time 7:17 AM EST 6:07 PM EST
Civil Twilight 6:51 AM EST 6:33 PM EST
Nautical Twilight 6:21 AM EST 7:02 PM EST
Astronomical Twilight 5:52 AM EST 7:32 PM EST
Moon 7:46 AM EST (2/11) 7:55 PM EST (2/11)
Length of Visible Light 11h 41m
Length of Day
10h 49m
Waxing Crescent, 3% of the Moon is Illuminated
Feb 11
Waxing Crescent
Feb 17
First Quarter
Feb 25
Full
Mar 4
Last Quarter
Mar 11
New

Hourly Weather History & Observations

Time (EST) Temp. Windchill Dew Point Humidity Pressure Visibility Wind Dir Wind Speed Gust Speed Precip Events Conditions
12:15 AM 46.4 °F 44.3 °F 46.4 °F 100% 30.15 in 3.0 mi SSE 4.6 mph - N/A Rain Rain
12:35 AM 48.2 °F - 48.2 °F 100% 30.16 in 3.0 mi Calm Calm - N/A   Drizzle
12:55 AM 50.0 °F - 50.0 °F 100% 30.13 in 3.0 mi SE 3.5 mph - N/A   Light Drizzle
1:15 AM 50.0 °F - 50.0 °F 100% 30.13 in 3.0 mi Calm Calm - N/A   Light Drizzle
1:35 AM 50.0 °F - 50.0 °F 100% 30.13 in 2.5 mi Calm Calm - N/A   Overcast
1:55 AM 50.0 °F - 50.0 °F 100% 30.12 in 1.8 mi Calm Calm - N/A   Overcast
2:15 AM 50.0 °F - 50.0 °F 100% 30.12 in 1.2 mi NNW 3.5 mph - N/A   Overcast
2:35 AM 50.0 °F - 50.0 °F 100% 30.12 in 1.0 mi NNW 4.6 mph - N/A Rain Light Rain
2:55 AM 48.2 °F - 48.2 °F 100% 30.11 in 0.8 mi NNW 3.5 mph - N/A   Light Drizzle
3:15 AM 46.4 °F 45.2 °F 46.4 °F 100% 30.10 in 0.8 mi NNW 3.5 mph - N/A   Overcast
3:35 AM 46.4 °F - 46.4 °F 100% 30.07 in 0.5 mi Calm Calm - N/A Fog Fog
3:55 AM 46.4 °F 45.2 °F 46.4 °F 100% 30.08 in 0.2 mi North 3.5 mph - N/A Fog Fog
4:15 AM 46.4 °F 45.2 °F 46.4 °F 100% 30.08 in 0.2 mi NNW 3.5 mph - 0.01 in Rain Light Rain
4:35 AM 46.4 °F - 46.4 °F 100% 30.08 in 0.5 mi Calm Calm - 0.01 in Rain Rain
4:55 AM 46.4 °F 45.2 °F 46.4 °F 100% 30.08 in 0.8 mi North 3.5 mph - 0.02 in   Light Drizzle
5:15 AM 46.4 °F - 46.4 °F 100% 30.08 in 1.0 mi Calm Calm - N/A   Drizzle
5:35 AM 48.2 °F - 48.2 °F 100% 30.09 in 1.8 mi Calm Calm - N/A   Drizzle
5:55 AM 48.2 °F - 48.2 °F 100% 30.08 in 2.5 mi North 3.5 mph - N/A   Drizzle
6:15 AM 48.2 °F - 48.2 °F 100% 30.08 in 3.0 mi NNE 3.5 mph - N/A   Drizzle
6:35 AM 48.2 °F - 48.2 °F 100% 30.08 in 4.0 mi North 4.6 mph - N/A   Drizzle
6:55 AM 48.2 °F - 48.2 °F 100% 30.08 in 3.0 mi NNE 3.5 mph - N/A Rain Light Rain
7:15 AM 48.2 °F - 48.2 °F 100% 30.07 in 2.5 mi Calm Calm - 0.01 in Rain Rain
7:35 AM 48.2 °F - 48.2 °F 100% 30.06 in 1.8 mi Calm Calm - 0.01 in   Light Drizzle
7:55 AM 48.2 °F - 48.2 °F 100% 30.07 in 1.2 mi Calm Calm - 0.01 in   Overcast
8:15 AM 50.0 °F - 50.0 °F 100% 30.09 in 1.0 mi Calm Calm - N/A Rain Rain
8:35 AM 50.0 °F - 50.0 °F 100% 30.09 in 1.0 mi Calm Calm - N/A   Drizzle
8:55 AM 50.0 °F - 50.0 °F 100% 30.08 in 1.2 mi Calm Calm - 0.01 in   Drizzle
9:15 AM 50.0 °F - 50.0 °F 100% 30.08 in 1.5 mi Calm Calm - N/A   Overcast
9:35 AM 51.8 °F - 51.8 °F 100% 30.07 in 1.0 mi Calm Calm - N/A   Overcast
9:55 AM 51.8 °F - 51.8 °F 100% 30.05 in 1.2 mi Calm Calm - N/A   Overcast
10:15 AM 51.8 °F - 51.8 °F 100% 30.05 in 1.5 mi Calm Calm - N/A   Overcast
10:35 AM 51.8 °F - 51.8 °F 100% 30.06 in 1.2 mi Calm Calm - N/A   Overcast
10:55 AM 53.6 °F - 53.6 °F 100% 30.06 in 0.8 mi Calm Calm - N/A   Overcast
11:15 AM 53.6 °F - 53.6 °F 100% 30.07 in 0.8 mi WSW 4.6 mph - N/A Rain Rain
11:35 AM 53.6 °F - 53.6 °F 100% 30.07 in 1.0 mi WSW 5.8 mph - 0.01 in   Light Drizzle
11:55 AM 53.6 °F - 53.6 °F 100% 30.06 in 1.0 mi WSW 5.8 mph - 0.01 in   Drizzle
12:15 PM 53.6 °F - 53.6 °F 100% 30.06 in 1.5 mi WSW 5.8 mph - N/A   Overcast
12:35 PM 55.4 °F - 55.4 °F 100% 30.04 in 3.0 mi WSW 8.1 mph - N/A   Overcast
12:55 PM 55.4 °F - 55.4 °F 100% 30.04 in 4.0 mi WSW 9.2 mph - N/A   Overcast
1:15 PM 55.4 °F - 55.4 °F 100% 30.04 in 2.5 mi WSW 10.4 mph - N/A   Overcast
1:35 PM 55.4 °F - 55.4 °F 100% 30.02 in 1.8 mi WSW 10.4 mph - N/A   Overcast
1:55 PM 57.2 °F - 57.2 °F 100% 30.03 in 2.0 mi WSW 11.5 mph - N/A   Overcast
2:15 PM 57.2 °F - 57.2 °F 100% 30.03 in 7.0 mi WSW 12.7 mph 19.6 mph N/A   Overcast
2:35 PM 57.2 °F - 57.2 °F 100% 30.01 in 10.0 mi SW 13.8 mph 19.6 mph N/A   Overcast
2:55 PM 59.0 °F - 59.0 °F 100% 29.99 in 10.0 mi SW 10.4 mph 17.3 mph N/A   Overcast
3:15 PM 59.0 °F - 59.0 °F 100% 30.00 in 10.0 mi SW 10.4 mph - N/A   Mostly Cloudy
3:35 PM 59.0 °F - 59.0 °F 100% 30.00 in 10.0 mi WSW 11.5 mph - N/A   Mostly Cloudy
3:55 PM 59.0 °F - 59.0 °F 100% 30.01 in 10.0 mi SW 10.4 mph - N/A Rain Light Rain
4:15 PM 59.0 °F - 59.0 °F 100% 30.00 in 10.0 mi SW 10.4 mph 17.3 mph N/A   Mostly Cloudy
4:35 PM 59.0 °F - 59.0 °F 100% 29.97 in 10.0 mi SW 6.9 mph - N/A   Scattered Clouds
4:55 PM 59.0 °F - 57.2 °F 94% 29.98 in 10.0 mi West 5.8 mph - N/A   Scattered Clouds
5:55 PM 59.0 °F - 57.2 °F 94% 30.01 in 10.0 mi SW 12.7 mph - N/A   Mostly Cloudy
6:15 PM 57.2 °F - 55.4 °F 94% 30.01 in 10.0 mi SW 8.1 mph - N/A   Scattered Clouds
6:35 PM 57.2 °F - 55.4 °F 94% 30.02 in 10.0 mi WSW 6.9 mph - N/A   Clear
6:55 PM 57.2 °F - 55.4 °F 94% 30.02 in 10.0 mi WSW 9.2 mph - N/A   Clear
7:15 PM 55.4 °F - 55.4 °F 100% 30.02 in 10.0 mi WSW 9.2 mph - N/A   Clear
7:35 PM 55.4 °F - 55.4 °F 100% 30.02 in 10.0 mi WSW 6.9 mph - N/A   Clear
7:55 PM 55.4 °F - 53.6 °F 94% 30.04 in 10.0 mi WSW 5.8 mph - N/A   Clear
8:15 PM 55.4 °F - 53.6 °F 94% 30.02 in 10.0 mi WSW 5.8 mph - N/A   Clear
8:35 PM 55.4 °F - 53.6 °F 94% 30.03 in 10.0 mi WSW 5.8 mph - N/A   Clear
8:55 PM 53.6 °F - 53.6 °F 100% 30.04 in 10.0 mi WSW 4.6 mph - N/A   Clear
9:15 PM 53.6 °F - 53.6 °F 100% 30.04 in 10.0 mi WSW 4.6 mph - N/A   Clear
9:35 PM 53.6 °F - 53.6 °F 100% 30.03 in 10.0 mi WSW 4.6 mph - N/A   Clear
9:55 PM 53.6 °F - 53.6 °F 100% 30.04 in 10.0 mi WSW 4.6 mph - N/A   Clear
10:15 PM 53.6 °F - 53.6 °F 100% 30.02 in 10.0 mi WSW 3.5 mph - N/A   Clear
10:35 PM 53.6 °F - 53.6 °F 100% 30.01 in 10.0 mi WSW 3.5 mph - N/A   Clear
10:55 PM 51.8 °F - 51.8 °F 100% 30.01 in 10.0 mi Calm Calm - N/A   Clear
11:15 PM 53.6 °F - 53.6 °F 100% 30.01 in 10.0 mi Calm Calm - N/A   Clear
11:35 PM 53.6 °F - 53.6 °F 100% 30.01 in 10.0 mi WSW 3.5 mph - N/A   Clear
11:55 PM 51.8 °F - 51.8 °F 100% 30.03 in 10.0 mi WSW 5.8 mph - N/A   Clear